Location: Shenandoah County Park
(38.9356°N, 78.4524°W)
Time: 09:17:35
(UTC-04:00)

Vanguard 1 Rocket - Pass Details

Date: 10 February 2023
Orbit: 652 x 4223 km, 34.3° (Epoch: 24 March)

Event Time Altitude Azimuth Distance (km) Brightness Sun altitude
Rises 11:25:48 0° 248° (WSW) 3,714 10.6 34.8°
Reaches altitude 10° 11:27:54 10° 245° (WSW) 3,008 10.2 35.0°
Maximum altitude 11:35:17 64° 165° (SSE) 1,833 10.3 35.4°
Drops below altitude 10° 11:50:00 10° 89° (E) 5,693 11.7 36.1°
Sets 11:55:41 0° 87° (E) 7,260 12.1 36.3°
